CATSAT-2 (44033 NORAD) Tracking and Keplerian Element Data
This shows tracking and keplerian element data for the satellite.
Feedback or suggestion? Click here.
Element | Value |
Catalog | 44033 |
Name | CATSAT-2 |
Epoch Orbit | 342 |
Epoch Day | 53.63376039 |
Epoch Year | 2019 |
RAAN | 210.7066 |
Inclination | 51.6387 |
Eccentricity | 0.0005265 |
Argument of Perigee | 79.0566 |
Mean Anonmoly | 281.1017 |
Mean Motion | 15.54128169 |
Decay Rate | 8E-05 |
L1 | 1 44033U 98067PZ 19053.63376039 .00008000 00000-0 12794-3 0 9993 |
L2 | 2 44033 51.6387 210.7066 0005265 79.0566 281.1017 15.54128169 3420 |
Live tracking and technical data element details for CATSAT-2 (NORAD 44033). CATSAT-2 can be tracked NOW for your location showing map with azimuth and elevation plus other details from your city location.
Track the satellite on the map from your city or location and see movement details for azimuth, elevation, latitude, longitude, range, height, and movement on the map or in text.
IsCatalogInMostPopularTable: catalog: 44033, numindb: 10
Update: records affected: 1
GetName: 44033 CATSAT-2
Hit Count: updated at: Sat, 23 Feb 2019 16:48:56 GMT